Saint Bonnet de Bellac- Haute Vienne - France
Donnes mto: vendredi, 08/06/2012
Date Horaire Temp. E. Hum. E. P.atmo. Pluie Vent Direction Direction Ensoleilleme Solaire P. de rose Temp au vent Rafales
08/06/2012 00:00 14,3 C 84 % 1007,9 hPa 0,0 mm 6,5 km/h (2 Bft) SO 225 0 min 0 W/m 11,6 C 14,3 C 12,2 km/h (2 Bft)
08/06/2012 00:10 14,4 C 84 % 1008,1 hPa 0,0 mm 2,2 km/h (1 Bft) O-SO 247 0 min 0 W/m 11,7 C 14,4 C 6,1 km/h (2 Bft)
08/06/2012 00:20 14,4 C 84 % 1008,2 hPa 0,0 mm 4,7 km/h (1 Bft) SO 225 0 min 0 W/m 11,7 C 14,4 C 8,6 km/h (2 Bft)
08/06/2012 00:30 14,3 C 84 % 1008,3 hPa 0,0 mm 2,5 km/h (1 Bft) S-SO 202 0 min 0 W/m 11,6 C 14,3 C 4,3 km/h (1 Bft)
08/06/2012 00:40 14,2 C 85 % 1008,5 hPa 0,0 mm 4,7 km/h (1 Bft) S-SO 202 0 min 0 W/m 11,7 C 14,2 C 6,1 km/h (2 Bft)
08/06/2012 00:50 14,1 C 85 % 1008,6 hPa 0,0 mm 4,0 km/h (1 Bft) S-SO 202 0 min 0 W/m 11,6 C 14,1 C 6,8 km/h (2 Bft)
08/06/2012 01:00 13,9 C 85 % 1008,7 hPa 0,0 mm 2,9 km/h (1 Bft) SO 225 0 min 0 W/m 11,4 C 13,9 C 6,8 km/h (2 Bft)
08/06/2012 01:10 13,8 C 86 % 1008,6 hPa 0,0 mm 5,8 km/h (2 Bft) S 180 0 min 0 W/m 11,5 C 13,8 C 11,2 km/h (2 Bft)
08/06/2012 01:20 13,7 C 87 % 1008,5 hPa 0,0 mm 5,8 km/h (2 Bft) O-SO 247 0 min 0 W/m 11,6 C 13,7 C 11,5 km/h (2 Bft)
08/06/2012 01:30 13,6 C 87 % 1008,5 hPa 0,0 mm 5,4 km/h (2 Bft) S-SO 202 0 min 0 W/m 11,5 C 13,6 C 9,7 km/h (2 Bft)
08/06/2012 01:40 13,6 C 88 % 1008,5 hPa 0,0 mm 3,2 km/h (1 Bft) O-SO 247 0 min 0 W/m 11,6 C 13,6 C 4,0 km/h (1 Bft)
08/06/2012 01:50 13,6 C 88 % 1008,6 hPa 0,0 mm 7,6 km/h (2 Bft) S-SO 202 0 min 0 W/m 11,6 C 13,6 C 11,2 km/h (2 Bft)
08/06/2012 02:00 13,6 C 88 % 1008,5 hPa 0,0 mm 7,2 km/h (2 Bft) S-SO 202 0 min 0 W/m 11,6 C 13,6 C 10,4 km/h (2 Bft)
08/06/2012 02:10 13,5 C 88 % 1008,9 hPa 0,0 mm 6,8 km/h (2 Bft) SO 225 0 min 0 W/m 11,6 C 13,5 C 6,8 km/h (2 Bft)
08/06/2012 02:20 13,6 C 89 % 1009,1 hPa 0,0 mm 5,0 km/h (1 Bft) S-SO 202 0 min 0 W/m 11,8 C 13,6 C 5,0 km/h (1 Bft)
08/06/2012 02:30 13,6 C 89 % 1009,0 hPa 0,0 mm 5,0 km/h (1 Bft) S-SO 202 0 min 0 W/m 11,8 C 13,6 C 6,5 km/h (2 Bft)
08/06/2012 02:40 13,7 C 88 % 1009,1 hPa 0,0 mm 7,2 km/h (2 Bft) SO 225 0 min 0 W/m 11,7 C 13,7 C 15,8 km/h (3 Bft)
08/06/2012 02:50 13,8 C 88 % 1009,1 hPa 0,0 mm 7,9 km/h (2 Bft) S-SO 202 0 min 0 W/m 11,8 C 13,8 C 7,9 km/h (2 Bft)
08/06/2012 03:02 13,8 C 88 % 1009,1 hPa 0,0 mm 8,3 km/h (2 Bft) S 180 0 min 0 W/m 11,8 C 13,8 C 8,3 km/h (2 Bft)
08/06/2012 03:10 13,9 C 87 % 1009,1 hPa 0,0 mm 5,4 km/h (2 Bft) O-SO 247 0 min 0 W/m 11,8 C 13,9 C 9,4 km/h (2 Bft)
08/06/2012 03:20 13,9 C 87 % 1009,2 hPa 0,0 mm 6,1 km/h (2 Bft) S-SO 202 0 min 0 W/m 11,8 C 13,9 C 11,5 km/h (2 Bft)
08/06/2012 03:30 13,9 C 87 % 1009,0 hPa 0,0 mm 8,3 km/h (2 Bft) S-SO 202 0 min 0 W/m 11,8 C 13,9 C 13,7 km/h (3 Bft)
08/06/2012 03:40 13,8 C 87 % 1008,9 hPa 0,0 mm 5,8 km/h (2 Bft) SO 225 0 min 0 W/m 11,7 C 13,8 C 10,8 km/h (2 Bft)
08/06/2012 03:50 13,8 C 87 % 1009,0 hPa 0,0 mm 9,0 km/h (2 Bft) SO 225 0 min 0 W/m 11,7 C 13,8 C 11,5 km/h (2 Bft)
08/06/2012 04:00 13,6 C 88 % 1009,0 hPa 0,0 mm 4,7 km/h (1 Bft) S-SO 202 0 min 0 W/m 11,6 C 13,6 C 9,4 km/h (2 Bft)
08/06/2012 04:10 13,5 C 88 % 1009,3 hPa 0,0 mm 8,6 km/h (2 Bft) SO 225 0 min 0 W/m 11,6 C 13,5 C 15,1 km/h (3 Bft)
08/06/2012 04:20 13,4 C 88 % 1009,4 hPa 0,0 mm 7,6 km/h (2 Bft) S-SO 202 0 min 0 W/m 11,5 C 13,4 C 10,4 km/h (2 Bft)
08/06/2012 04:30 13,4 C 88 % 1009,4 hPa 0,0 mm 6,1 km/h (2 Bft) S-SO 202 0 min 0 W/m 11,5 C 13,4 C 9,7 km/h (2 Bft)
08/06/2012 04:40 13,3 C 88 % 1009,4 hPa 0,0 mm 4,0 km/h (1 Bft) SO 225 0 min 0 W/m 11,4 C 13,3 C 8,3 km/h (2 Bft)
08/06/2012 04:50 13,3 C 89 % 1009,6 hPa 0,0 mm 5,0 km/h (1 Bft) SO 225 0 min 0 W/m 11,5 C 13,3 C 8,3 km/h (2 Bft)
08/06/2012 05:00 13,3 C 89 % 1009,6 hPa 0,0 mm 5,8 km/h (2 Bft) SO 225 0 min 0 W/m 11,5 C 13,3 C 6,5 km/h (2 Bft)
08/06/2012 05:10 13,3 C 89 % 1009,7 hPa 0,0 mm 6,8 km/h (2 Bft) SO 225 0 min 0 W/m 11,5 C 13,3 C 9,0 km/h (2 Bft)
08/06/2012 05:20 13,4 C 89 % 1009,8 hPa 0,0 mm 6,8 km/h (2 Bft) SO 225 0 min 0 W/m 11,6 C 13,4 C 11,9 km/h (2 Bft)
08/06/2012 05:30 13,5 C 89 % 1009,8 hPa 0,0 mm 5,4 km/h (2 Bft) S-SO 202 0 min 0 W/m 11,7 C 13,5 C 8,3 km/h (2 Bft)
08/06/2012 05:40 13,6 C 88 % 1009,8 hPa 0,0 mm 7,6 km/h (2 Bft) SO 225 0 min 0 W/m 11,6 C 13,6 C 8,3 km/h (2 Bft)
08/06/2012 05:50 13,6 C 88 % 1009,9 hPa 0,0 mm 9,4 km/h (2 Bft) SO 225 0 min 0 W/m 11,6 C 13,6 C 12,6 km/h (3 Bft)
08/06/2012 06:00 13,6 C 88 % 1010,1 hPa 0,0 mm 6,5 km/h (2 Bft) O-SO 247 0 min 0 W/m 11,6 C 13,6 C 10,4 km/h (2 Bft)
08/06/2012 06:10 13,6 C 87 % 1010,2 hPa 0,0 mm 6,8 km/h (2 Bft) SO 225 0 min 0 W/m 11,5 C 13,6 C 10,1 km/h (2 Bft)
08/06/2012 06:20 13,5 C 87 % 1010,3 hPa 0,0 mm 3,6 km/h (1 Bft) S-SO 202 0 min 0 W/m 11,4 C 13,5 C 9,0 km/h (2 Bft)
08/06/2012 06:30 13,5 C 88 % 1010,4 hPa 0,0 mm 3,6 km/h (1 Bft) S-SO 202 0 min 0 W/m 11,6 C 13,5 C 10,4 km/h (2 Bft)
08/06/2012 06:40 13,6 C 88 % 1010,6 hPa 0,0 mm 5,4 km/h (2 Bft) S-SO 202 0 min 0 W/m 11,6 C 13,6 C 7,2 km/h (2 Bft)
08/06/2012 06:50 13,6 C 87 % 1010,7 hPa 0,0 mm 8,6 km/h (2 Bft) SO 225 0 min 0 W/m 11,5 C 13,6 C 10,8 km/h (2 Bft)
08/06/2012 07:00 13,6 C 87 % 1010,7 hPa 0,0 mm 3,2 km/h (1 Bft) SO 225 0 min 0 W/m 11,5 C 13,6 C 10,1 km/h (2 Bft)
08/06/2012 07:10 13,6 C 87 % 1010,8 hPa 0,0 mm 5,8 km/h (2 Bft) S-SO 202 0 min 0 W/m 11,5 C 13,6 C 7,9 km/h (2 Bft)
08/06/2012 07:20 13,8 C 87 % 1010,9 hPa 0,0 mm 3,2 km/h (1 Bft) SO 225 0 min 0 W/m 11,7 C 13,8 C 7,6 km/h (2 Bft)
08/06/2012 07:30 13,8 C 87 % 1011,0 hPa 0,0 mm 6,8 km/h (2 Bft) SO 225 0 min 0 W/m 11,7 C 13,8 C 14,8 km/h (3 Bft)
08/06/2012 07:40 13,9 C 87 % 1011,1 hPa 0,0 mm 8,6 km/h (2 Bft) SO 225 0 min 0 W/m 11,8 C 13,9 C 8,6 km/h (2 Bft)
08/06/2012 07:50 14,1 C 86 % 1011,1 hPa 0,0 mm 7,9 km/h (2 Bft) O 270 0 min 0 W/m 11,8 C 14,1 C 19,1 km/h (3 Bft)
08/06/2012 08:00 14,3 C 85 % 1011,1 hPa 0,0 mm 8,6 km/h (2 Bft) SO 225 0 min 0 W/m 11,8 C 14,3 C 13,0 km/h (3 Bft)
08/06/2012 08:10 14,4 C 85 % 1011,2 hPa 0,0 mm 4,3 km/h (1 Bft) S-SO 202 0 min 0 W/m 11,9 C 14,4 C 7,9 km/h (2 Bft)
08/06/2012 08:20 14,6 C 84 % 1011,3 hPa 0,0 mm 8,6 km/h (2 Bft) SO 225 0 min 0 W/m 11,9 C 14,6 C 11,2 km/h (2 Bft)
08/06/2012 08:30 14,8 C 84 % 1011,4 hPa 0,0 mm 6,5 km/h (2 Bft) S-SO 202 0 min 0 W/m 12,1 C 14,8 C 11,9 km/h (2 Bft)
08/06/2012 08:40 15,1 C 81 % 1011,6 hPa 0,0 mm 7,9 km/h (2 Bft) S-SO 202 0 min 0 W/m 11,9 C 15,1 C 12,6 km/h (3 Bft)
08/06/2012 08:50 15,1 C 81 % 1011,7 hPa 0,0 mm 3,2 km/h (1 Bft) O-SO 247 0 min 0 W/m 11,9 C 15,1 C 4,7 km/h (1 Bft)
08/06/2012 09:00 15,1 C 81 % 1011,8 hPa 0,0 mm 5,4 km/h (2 Bft) S-SO 202 0 min 0 W/m 11,9 C 15,1 C 14,4 km/h (3 Bft)
08/06/2012 09:10 15,1 C 79 % 1011,9 hPa 0,0 mm 7,9 km/h (2 Bft) SO 225 0 min 0 W/m 11,5 C 15,1 C 10,1 km/h (2 Bft)
08/06/2012 09:20 15,1 C 78 % 1011,9 hPa 0,0 mm 5,8 km/h (2 Bft) SO 225 0 min 0 W/m 11,3 C 15,1 C 11,9 km/h (2 Bft)
08/06/2012 09:30 15,1 C 78 % 1011,8 hPa 0,0 mm 8,6 km/h (2 Bft) O-SO 247 0 min 0 W/m 11,3 C 15,1 C 15,1 km/h (3 Bft)
08/06/2012 09:40 15,5 C 77 % 1011,8 hPa 0,0 mm 8,6 km/h (2 Bft) S-SO 202 0 min 0 W/m 11,5 C 15,5 C 11,2 km/h (2 Bft)
08/06/2012 09:50 16,0 C 75 % 1012,0 hPa 0,0 mm 13,7 km/h (3 Bft) S-SO 202 0 min 0 W/m 11,6 C 16,0 C 19,1 km/h (3 Bft)
08/06/2012 10:00 16,3 C 75 % 1012,0 hPa 0,0 mm 8,6 km/h (2 Bft) SO 225 0 min 0 W/m 11,9 C 16,3 C 14,4 km/h (3 Bft)
08/06/2012 10:10 16,4 C 74 % 1011,9 hPa 0,0 mm 11,5 km/h (2 Bft) S-SO 202 0 min 0 W/m 11,8 C 16,4 C 15,5 km/h (3 Bft)
08/06/2012 10:20 16,8 C 71 % 1011,9 hPa 0,0 mm 10,8 km/h (2 Bft) SO 225 0 min 0 W/m 11,5 C 16,8 C 14,8 km/h (3 Bft)
08/06/2012 10:30 16,6 C 72 % 1012,0 hPa 0,0 mm 6,8 km/h (2 Bft) S-SO 202 0 min 0 W/m 11,5 C 16,6 C 9,7 km/h (2 Bft)
08/06/2012 10:40 17,0 C 72 % 1012,1 hPa 0,0 mm 5,0 km/h (1 Bft) O-SO 247 0 min 0 W/m 11,9 C 17,0 C 9,7 km/h (2 Bft)
08/06/2012 10:50 17,1 C 70 % 1012,1 hPa 0,0 mm 6,1 km/h (2 Bft) S-SO 202 0 min 0 W/m 11,6 C 17,1 C 8,3 km/h (2 Bft)
08/06/2012 11:00 17,2 C 69 % 1012,2 hPa 0,0 mm 7,2 km/h (2 Bft) O-SO 247 0 min 0 W/m 11,5 C 17,2 C 15,8 km/h (3 Bft)
08/06/2012 11:10 17,2 C 70 % 1012,2 hPa 0,0 mm 9,7 km/h (2 Bft) SO 225 0 min 0 W/m 11,7 C 17,2 C 9,7 km/h (2 Bft)
08/06/2012 11:20 17,4 C 70 % 1012,3 hPa 0,0 mm 11,9 km/h (2 Bft) O-SO 247 0 min 0 W/m 11,9 C 17,4 C 11,9 km/h (2 Bft)
08/06/2012 11:30 17,6 C 68 % 1012,3 hPa 0,0 mm 3,2 km/h (1 Bft) SO 225 0 min 0 W/m 11,6 C 17,6 C 14,0 km/h (3 Bft)
08/06/2012 11:40 17,3 C 69 % 1012,5 hPa 0,0 mm 8,3 km/h (2 Bft) O-SO 247 0 min 0 W/m 11,6 C 17,3 C 10,1 km/h (2 Bft)
08/06/2012 11:50 16,3 C 74 % 1012,6 hPa 0,0 mm 8,6 km/h (2 Bft) O 270 0 min 0 W/m 11,7 C 16,3 C 8,6 km/h (2 Bft)
08/06/2012 12:00 16,0 C 79 % 1012,6 hPa 0,0 mm 6,5 km/h (2 Bft) S-SO 202 0 min 0 W/m 12,4 C 16,0 C 12,2 km/h (2 Bft)
08/06/2012 12:10 16,4 C 78 % 1012,7 hPa 0,0 mm 6,1 km/h (2 Bft) S-SO 202 0 min 0 W/m 12,6 C 16,4 C 11,2 km/h (2 Bft)
08/06/2012 12:20 17,2 C 73 % 1012,9 hPa 0,0 mm 8,3 km/h (2 Bft) O-SO 247 0 min 0 W/m 12,3 C 17,2 C 14,0 km/h (3 Bft)
08/06/2012 12:30 17,4 C 71 % 1012,9 hPa 0,1 mm 6,1 km/h (2 Bft) S-SO 202 0 min 0 W/m 12,1 C 17,4 C 11,2 km/h (2 Bft)
08/06/2012 12:40 17,6 C 70 % 1013,0 hPa 0,0 mm 11,5 km/h (2 Bft) S 180 0 min 0 W/m 12,1 C 17,6 C 18,0 km/h (3 Bft)
08/06/2012 12:50 17,9 C 64 % 1012,9 hPa 0,0 mm 8,6 km/h (2 Bft) O 270 0 min 0 W/m 11,0 C 17,9 C 20,2 km/h (4 Bft)
08/06/2012 13:00 18,1 C 64 % 1013,0 hPa 0,0 mm 7,9 km/h (2 Bft) SO 225 0 min 0 W/m 11,2 C 18,1 C 12,6 km/h (3 Bft)
08/06/2012 13:10 18,3 C 65 % 1013,0 hPa 0,0 mm 8,6 km/h (2 Bft) SO 225 0 min 0 W/m 11,6 C 18,3 C 15,1 km/h (3 Bft)
08/06/2012 13:20 18,3 C 62 % 1013,0 hPa 0,0 mm 11,2 km/h (2 Bft) O-SO 247 0 min 0 W/m 10,9 C 18,3 C 15,5 km/h (3 Bft)
08/06/2012 13:30 18,8 C 62 % 1013,1 hPa 0,0 mm 15,5 km/h (3 Bft) S-SO 202 0 min 0 W/m 11,4 C 18,8 C 23,0 km/h (4 Bft)
08/06/2012 13:40 18,8 C 63 % 1013,1 hPa 0,0 mm 5,0 km/h (1 Bft) S-SO 202 0 min 0 W/m 11,6 C 18,8 C 12,6 km/h (3 Bft)
08/06/2012 13:50 19,1 C 64 % 1013,1 hPa 0,0 mm 1,8 km/h (1 Bft) O-SO 247 0 min 0 W/m 12,1 C 19,1 C 7,2 km/h (2 Bft)
08/06/2012 14:00 18,9 C 61 % 1013,1 hPa 0,0 mm 7,9 km/h (2 Bft) S-SO 202 0 min 0 W/m 11,2 C 18,9 C 22,3 km/h (4 Bft)
08/06/2012 14:10 17,9 C 65 % 1013,3 hPa 0,0 mm 8,6 km/h (2 Bft) O 270 0 min 0 W/m 11,2 C 17,9 C 13,7 km/h (3 Bft)
08/06/2012 14:20 17,3 C 71 % 1013,4 hPa 0,0 mm 5,8 km/h (2 Bft) N 360 0 min 0 W/m 12,0 C 17,3 C 13,0 km/h (3 Bft)
08/06/2012 14:30 17,5 C 70 % 1013,2 hPa 0,0 mm 7,2 km/h (2 Bft) S-SO 202 0 min 0 W/m 12,0 C 17,5 C 11,9 km/h (2 Bft)
08/06/2012 14:40 18,2 C 68 % 1013,2 hPa 0,0 mm 10,1 km/h (2 Bft) O 270 0 min 0 W/m 12,2 C 18,2 C 16,9 km/h (3 Bft)
08/06/2012 14:50 18,5 C 64 % 1013,2 hPa 0,0 mm 8,3 km/h (2 Bft) SO 225 0 min 0 W/m 11,6 C 18,5 C 8,3 km/h (2 Bft)
08/06/2012 15:00 18,3 C 66 % 1013,7 hPa 0,0 mm 5,8 km/h (2 Bft) SO 225 0 min 0 W/m 11,8 C 18,3 C 12,6 km/h (3 Bft)
08/06/2012 15:10 17,8 C 67 % 1013,6 hPa 0,0 mm 1,8 km/h (1 Bft) O 270 0 min 0 W/m 11,6 C 17,8 C 7,9 km/h (2 Bft)
08/06/2012 15:20 18,2 C 70 % 1013,6 hPa 0,0 mm 5,8 km/h (2 Bft) NO 315 0 min 0 W/m 12,6 C 18,2 C 12,6 km/h (3 Bft)
08/06/2012 15:30 18,5 C 63 % 1013,8 hPa 0,0 mm 9,7 km/h (2 Bft) S-SO 202 0 min 0 W/m 11,3 C 18,5 C 10,8 km/h (2 Bft)
08/06/2012 15:40 18,5 C 65 % 1013,8 hPa 0,0 mm 6,8 km/h (2 Bft) O 270 0 min 0 W/m 11,8 C 18,5 C 8,3 km/h (2 Bft)
08/06/2012 15:50 18,8 C 64 % 1013,7 hPa 0,0 mm 8,3 km/h (2 Bft) S-SO 202 0 min 0 W/m 11,8 C 18,8 C 14,4 km/h (3 Bft)
08/06/2012 16:00 18,9 C 62 % 1013,7 hPa 0,0 mm 11,9 km/h (2 Bft) O 270 0 min 0 W/m 11,5 C 18,9 C 18,0 km/h (3 Bft)
08/06/2012 16:10 19,1 C 63 % 1013,7 hPa 0,0 mm 8,6 km/h (2 Bft) SO 225 0 min 0 W/m 11,9 C 19,1 C 15,1 km/h (3 Bft)
08/06/2012 16:20 19,4 C 57 % 1013,8 hPa 0,0 mm 7,6 km/h (2 Bft) O-NO 292 0 min 0 W/m 10,7 C 19,4 C 15,5 km/h (3 Bft)
08/06/2012 16:30 19,4 C 59 % 1013,8 hPa 0,0 mm 5,0 km/h (1 Bft) S-SO 202 0 min 0 W/m 11,2 C 19,4 C 12,6 km/h (3 Bft)
08/06/2012 16:40 19,4 C 58 % 1013,9 hPa 0,0 mm 7,9 km/h (2 Bft) O-SO 247 0 min 0 W/m 10,9 C 19,4 C 15,5 km/h (3 Bft)
08/06/2012 16:50 19,3 C 58 % 1014,0 hPa 0,0 mm 7,6 km/h (2 Bft) O-SO 247 0 min 0 W/m 10,8 C 19,3 C 15,1 km/h (3 Bft)
08/06/2012 17:00 18,6 C 61 % 1014,3 hPa 0,0 mm 5,4 km/h (2 Bft) SO 225 0 min 0 W/m 10,9 C 18,6 C 10,8 km/h (2 Bft)
08/06/2012 17:10 18,4 C 63 % 1014,3 hPa 0,0 mm 7,2 km/h (2 Bft) O-SO 247 0 min 0 W/m 11,2 C 18,4 C 15,5 km/h (3 Bft)
08/06/2012 17:20 18,3 C 65 % 1014,2 hPa 0,0 mm 1,1 km/h (1 Bft) O-SO 247 0 min 0 W/m 11,6 C 18,3 C 7,2 km/h (2 Bft)
08/06/2012 17:30 18,8 C 65 % 1014,2 hPa 0,0 mm 4,0 km/h (1 Bft) O 270 0 min 0 W/m 12,1 C 18,8 C 6,5 km/h (2 Bft)
08/06/2012 17:40 19,3 C 64 % 1014,1 hPa 0,0 mm 0,7 km/h (0 Bft) SO 225 0 min 0 W/m 12,3 C 19,3 C 3,6 km/h (1 Bft)
08/06/2012 17:50 19,0 C 61 % 1014,2 hPa 0,0 mm 4,3 km/h (1 Bft) O-NO 292 0 min 0 W/m 11,3 C 19,0 C 9,0 km/h (2 Bft)
08/06/2012 18:00 18,8 C 63 % 1014,3 hPa 0,0 mm 4,0 km/h (1 Bft) O-SO 247 0 min 0 W/m 11,6 C 18,8 C 4,0 km/h (1 Bft)
08/06/2012 18:10 18,6 C 64 % 1014,3 hPa 0,0 mm 0,7 km/h (0 Bft) O 270 0 min 0 W/m 11,7 C 18,6 C 4,3 km/h (1 Bft)
08/06/2012 18:20 18,6 C 61 % 1014,2 hPa 0,0 mm 4,7 km/h (1 Bft) O 270 0 min 0 W/m 10,9 C 18,6 C 4,7 km/h (1 Bft)
08/06/2012 18:30 18,4 C 60 % 1014,2 hPa 0,0 mm 12,2 km/h (2 Bft) S-SO 202 0 min 0 W/m 10,5 C 18,4 C 12,2 km/h (2 Bft)
08/06/2012 18:40 18,2 C 61 % 1014,2 hPa 0,0 mm 5,8 km/h (2 Bft) SO 225 0 min 0 W/m 10,6 C 18,2 C 10,1 km/h (2 Bft)
08/06/2012 18:50 18,2 C 63 % 1014,2 hPa 0,0 mm 3,2 km/h (1 Bft) O-NO 292 0 min 0 W/m 11,0 C 18,2 C 4,3 km/h (1 Bft)
08/06/2012 19:00 18,5 C 59 % 1014,3 hPa 0,0 mm 7,2 km/h (2 Bft) O-NO 292 0 min 0 W/m 10,3 C 18,5 C 11,2 km/h (2 Bft)
08/06/2012 19:10 18,4 C 61 % 1014,4 hPa 0,0 mm 5,0 km/h (1 Bft) SO 225 0 min 0 W/m 10,7 C 18,4 C 12,6 km/h (3 Bft)
08/06/2012 19:20 18,6 C 59 % 1014,6 hPa 0,0 mm 5,4 km/h (2 Bft) O 270 0 min 0 W/m 10,4 C 18,6 C 5,4 km/h (2 Bft)
08/06/2012 19:30 18,8 C 60 % 1014,6 hPa 0,0 mm 7,6 km/h (2 Bft) NO 315 0 min 0 W/m 10,9 C 18,8 C 13,3 km/h (3 Bft)
08/06/2012 19:40 18,9 C 58 % 1014,7 hPa 0,0 mm 7,6 km/h (2 Bft) O 270 0 min 0 W/m 10,5 C 18,9 C 7,6 km/h (2 Bft)
08/06/2012 19:50 18,5 C 58 % 1014,8 hPa 0,0 mm 0,7 km/h (0 Bft) O 270 0 min 0 W/m 10,1 C 18,5 C 0,7 km/h (0 Bft)
08/06/2012 20:00 18,1 C 60 % 1014,8 hPa 0,0 mm 6,1 km/h (2 Bft) SO 225 0 min 0 W/m 10,2 C 18,1 C 6,1 km/h (2 Bft)
08/06/2012 20:10 17,7 C 61 % 1014,9 hPa 0,0 mm 6,5 km/h (2 Bft) O 270 0 min 0 W/m 10,1 C 17,7 C 13,0 km/h (3 Bft)
08/06/2012 20:20 17,3 C 60 % 1015,1 hPa 0,0 mm 9,7 km/h (2 Bft) S-SO 202 0 min 0 W/m 9,5 C 17,3 C 9,7 km/h (2 Bft)
08/06/2012 20:30 17,0 C 62 % 1015,3 hPa 0,0 mm 4,0 km/h (1 Bft) SO 225 0 min 0 W/m 9,7 C 17,0 C 4,0 km/h (1 Bft)
08/06/2012 20:40 16,7 C 64 % 1015,4 hPa 0,0 mm 3,2 km/h (1 Bft) O-NO 292 0 min 0 W/m 9,9 C 16,7 C 8,6 km/h (2 Bft)
08/06/2012 20:50 16,4 C 65 % 1015,7 hPa 0,0 mm 4,0 km/h (1 Bft) SO 225 0 min 0 W/m 9,8 C 16,4 C 4,0 km/h (1 Bft)
08/06/2012 21:00 16,1 C 64 % 1015,7 hPa 0,0 mm 1,1 km/h (1 Bft) SO 225 0 min 0 W/m 9,3 C 16,1 C 8,6 km/h (2 Bft)
08/06/2012 21:10 15,8 C 65 % 1015,6 hPa 0,0 mm 2,2 km/h (1 Bft) O-SO 247 0 min 0 W/m 9,2 C 15,8 C 7,6 km/h (2 Bft)
08/06/2012 21:20 15,5 C 65 % 1015,8 hPa 0,0 mm 0,0 km/h (0 Bft) SO 225 0 min 0 W/m 8,9 C 15,5 C 3,2 km/h (1 Bft)
08/06/2012 21:30 15,1 C 66 % 1015,8 hPa 0,0 mm 1,8 km/h (1 Bft) O-SO 247 0 min 0 W/m 8,8 C 15,1 C 4,3 km/h (1 Bft)
08/06/2012 21:40 14,8 C 67 % 1015,9 hPa 0,0 mm 1,4 km/h (1 Bft) O-SO 247 0 min 0 W/m 8,7 C 14,8 C 4,0 km/h (1 Bft)
08/06/2012 21:50 14,4 C 68 % 1015,9 hPa 0,0 mm 0,0 km/h (0 Bft) O-SO 247 0 min 0 W/m 8,6 C 14,4 C 0,0 km/h (0 Bft)
08/06/2012 22:00 14,1 C 69 % 1016,1 hPa 0,0 mm 4,7 km/h (1 Bft) O-SO 247 0 min 0 W/m 8,5 C 14,1 C 6,1 km/h (2 Bft)
08/06/2012 22:10 13,8 C 70 % 1016,2 hPa 0,0 mm 3,6 km/h (1 Bft) S-SO 202 0 min 0 W/m 8,4 C 13,8 C 7,6 km/h (2 Bft)
08/06/2012 22:20 13,5 C 71 % 1016,5 hPa 0,0 mm 0,0 km/h (0 Bft) O 270 0 min 0 W/m 8,3 C 13,5 C 0,0 km/h (0 Bft)
08/06/2012 22:30 13,3 C 72 % 1016,5 hPa 0,0 mm 0,4 km/h (0 Bft) O-SO 247 0 min 0 W/m 8,4 C 13,3 C 2,9 km/h (1 Bft)
08/06/2012 22:40 13,1 C 73 % 1016,6 hPa 0,0 mm 1,8 km/h (1 Bft) O-SO 247 0 min 0 W/m 8,4 C 13,1 C 1,8 km/h (1 Bft)
08/06/2012 22:50 12,8 C 74 % 1016,7 hPa 0,0 mm 0,7 km/h (0 Bft) S-SO 202 0 min 0 W/m 8,3 C 12,8 C 3,2 km/h (1 Bft)
08/06/2012 23:00 12,6 C 75 % 1016,8 hPa 0,0 mm 0,4 km/h (0 Bft) SO 225 0 min 0 W/m 8,3 C 12,6 C 0,4 km/h (0 Bft)
08/06/2012 23:10 12,3 C 76 % 1017,0 hPa 0,0 mm 0,0 km/h (0 Bft) O-SO 247 0 min 0 W/m 8,2 C 12,3 C 0,0 km/h (0 Bft)
08/06/2012 23:20 12,1 C 77 % 1017,0 hPa 0,0 mm 1,8 km/h (1 Bft) SO 225 0 min 0 W/m 8,2 C 12,1 C 3,6 km/h (1 Bft)
08/06/2012 23:30 11,8 C 77 % 1017,1 hPa 0,0 mm 0,0 km/h (0 Bft) O-SO 247 0 min 0 W/m 7,9 C 11,8 C 0,0 km/h (0 Bft)
08/06/2012 23:40 11,7 C 78 % 1017,2 hPa 0,0 mm 0,4 km/h (0 Bft) SO 225 0 min 0 W/m 8,0 C 11,7 C 0,4 km/h (0 Bft)
08/06/2012 23:50 11,6 C 80 % 1017,2 hPa 0,0 mm 1,8 km/h (1 Bft) O-SO 247 0 min 0 W/m 8,3 C 11,6 C 1,8 km/h (1 Bft)
_ Min-Heure 23:50 16:20 00:00 - 23:30 - - - - 23:30 23:50 23:30
Minimum _ 11,6 C 57 % 1007,9 hPa - 0,0 km/h (0 Bft) - - - - 7,9 C 11,6 C 0,0 km/h (0 Bft)
_ Max-Heure 16:40 05:30 23:50 12:30 13:30 - - 23:50 23:50 15:20 16:40 13:30
Maximum _ 19,4 C 89 % 1017,2 hPa 0,1 mm 15,5 km/h
S-SO (3 Bft)
- - 0 min 0 W/m 12,6 C 19,4 C 23,0 km/h
S-SO (4 Bft)
Moyenne _ 15,8 C 75 % 1012,4 hPa #0,1 mm 5,9 km/h (2 Bft) SO - #0 min. 0 W/m 11,1 C 15,8 C 9,8 km/h (2 Bft)
Saint Bonnet de Bellac- Haute Vienne - France